GFSMA_850_dewp_000.txt.gz
Dewpoint
2 1 -5 -8 -7 -6 -6 -5 -5 -6 -9 -12 -13 -13 -14 -14 -13 -11 -8 -0 4 6 7 7 6 8 9 9 10 10 10 10 9 9 10 10 10 10 7 6 9 6 8
-1 -4 -7 -7 -7 -6 -5 -4 -4 -7 -10 -11 -11 -11 -10 -8 -8 -8 -9 -9 -7 1 5 6 6 6 6 6 8 10 11 10 9 9 10 11 11 10 9 6 7 9 7
-2 -4 -6 -6 -6 -6 -6 -5 -6 -7 -10 -10 -8 -7 -7 -7 -8 -8 -8 -8 -8 -8 -7 -3 5 7 7 6 5 5 7 10 11 10 9 9 9 10 10 8 6 9 8
-5 -5 -6 -6 -5 -5 -8 -9 -8 -8 -9 -7 -6 -6 -7 -8 -7 -6 -7 -8 -8 -8 -5 -4 -4 -3 4 7 8 7 5 6 8 9 10 11 10 9 10 10 6 8 8
-5 -5 -6 -7 -5 -5 -6 -7 -8 -7 -6 -5 -6 -6 -7 -6 -6 -7 -8 -9 -9 -6 -4 -3 -3 -1 -0 1 5 7 8 7 6 7 8 8 8 10 10 10 9 7 7
-5 -5 -6 -6 -5 -5 -5 -6 -6 -6 -6 -6 -6 -6 -7 -7 -7 -7 -7 -8 -8 -10 -8 -7 -6 -3 -2 -2 -1 0 3 5 8 7 8 7 7 8 8 10 10 9 7
-3 -4 -5 -5 -6 -5 -6 -5 -6 -5 -5 -5 -5 -6 -7 -7 -8 -7 -7 -7 -7 -8 -9 -10 -8 -7 -4 -2 -1 -1 0 2 4 7 8 9 8 9 9 8 10 10 9
-2 -2 -3 -3 -4 -5 -5 -5 -5 -5 -5 -5 -4 -5 -5 -6 -6 -7 -7 -7 -6 -7 -8 -9 -9 -11 -11 -8 -3 -1 -0 2 2 1 2 6 8 8 7 8 7 10 10
-3 -2 -1 -2 -4 -5 -6 -6 -4 -4 -4 -4 -4 -4 -6 -6 -6 -6 -6 -6 -6 -5 -7 -8 -10 -14 -17 -16 -6 -0 -1 -1 -0 1 0 -0 2 6 7 7 9 8 9
-4 -3 -4 -2 -1 -3 -3 -5 -4 -3 -4 -4 -4 -4 -5 -5 -6 -8 -7 -7 -6 -5 -7 -11 -13 -16 -20 -19 -14 -4 -2 -3 -3 -4 -3 -1 -0 3 6 6 7 9 9
-4 -4 -4 -4 -5 -4 -4 -4 -1 -3 -1 -2 -3 -4 -6 -9 -9 -8 -9 -7 -5 -4 -7 -12 -14 -17 -20 -21 -5 -3 -3 -3 -4 -4 -5 -3 -3 -1 5 5 6 5 9
-7 -6 -6 -6 -6 -4 -3 -1 -2 -2 -3 -5 -8 -8 -7 -9 -10 -8 -7 -3 -3 -4 -9 -14 -15 -16 -18 -20 -9 -4 -4 -3 -4 -4 -1 -0 -3 -4 0 5 6 6 8
-5 -6 -6 -6 -3 -2 -2 -2 -4 -6 -6 -5 -1 -1 -1 -1 -1 -1 -2 -6 -12 -13 -13 -15 -13 -11 -14 -16 -6 -7 -4 -2 0 0 -1 -4 -5 -5 -6 0 5 6 5
-5 -5 -5 -4 -2 -3 -4 -4 -3 -2 -2 -1 -1 -1 -1 -1 -2 -5 -6 -9 -10 -11 -11 -12 -11 -12 -12 -14 -8 -4 -5 -4 -3 -4 -3 -3 -5 -2 -3 -1 2 2 -0
-5 -5 -4 -3 -4 -4 -4 -1 -1 -1 -2 -4 -5 -5 -3 -4 -5 -6 -7 -9 -9 -7 -8 -10 -11 -11 -11 -12 -15 -12 -7 -7 -5 -2 -5 -3 -6 -8 -6 -5 -2 2 -0
-4 -5 -5 -5 -5 -5 -4 -2 -2 -8 -11 -9 -8 -9 -9 -10 -11 -12 -13 -14 -14 -13 -10 -10 -10 -11 -11 -10 -12 -11 -8 -6 -7 -6 -4 -4 -4 -5 -6 -7 -8 -5 -5
-5 -6 -5 -5 -4 -5 -9 -11 -9 -9 -10 -11 -12 -13 -13 -15 -15 -15 -15 -14 -13 -11 -9 -10 -10 -10 -11 -10 -10 -10 -11 -9 -9 -9 -8 -6 -4 -5 -6 -8 -8 -9 -11
-6 -6 -4 -3 -7 -8 -10 -13 -11 -10 -10 -11 -12 -16 -17 -16 -15 -14 -12 -11 -11 -10 -9 -9 -9 -8 -8 -8 -8 -8 -8 -12 -13 -13 -12 -10 -8 -6 -5 -7 -7 -7 -10
-5 -5 -4 -4 -8 -9 -9 -9 -9 -10 -12 -16 -17 -17 -16 -13 -12 -11 -10 -10 -10 -10 -10 -9 -9 -9 -9 -9 -9 -9 -9 -9 -11 -12 -15 -15 -14 -9 -7 -6 -9 -9 -8
-4 -3 -3 -5 -7 -8 -10 -10 -11 -14 -16 -16 -15 -13 -11 -10 -10 -11 -11 -11 -12 -12 -12 -11 -11 -10 -10 -11 -11 -11 -11 -11 -12 -14 -15 -16 -15 -14 -12 -9 -11 -9 -10
-4 -4 -5 -5 -6 -9 -11 -13 -14 -15 -14 -14 -14 -13 -13 -14 -16 -16 -14 -14 -13 -12 -10 -9 -8 -8 -8 -8 -10 -12 -12 -14 -15 -15 -16 -17 -17 -17 -17 -15 -14 -11 -6
-6 -7 -8 -9 -10 -12 -14 -13 -13 -12 -12 -12 -13 -14 -16 -16 -15 -14 -13 -12 -11 -10 -10 -10 -10 -9 -10 -9 -10 -11 -12 -10 -10 -11 -11 -13 -13 -14 -14 -14 -13 -13 -8
-10 -11 -12 -13 -13 -13 -12 -12 -11 -12 -13 -13 -14 -15 -14 -13 -12 -12 -12 -12 -11 -11 -11 -10 -10 -9 -9 -10 -10 -10 -10 -11 -11 -11 -10 -9 -8 -8 -9 -9 -5 -4 -5
-14 -13 -13 -13 -13 -13 -12 -12 -12 -13 -15 -15 -14 -14 -12 -12 -12 -11 -11 -10 -10 -10 -10 -10 -11 -10 -10 -10 -10 -10 -10 -10 -10 -10 -10 -9 -9 -8 -9 -8 -8 -5 -3
-13 -13 -13 -12 -12 -12 -12 -14 -15 -15 -14 -14 -13 -12 -12 -12 -11 -11 -10 -10 -10 -11 -11 -11 -10 -10 -10 -10 -10 -10 -9 -9 -9 -10 -11 -10 -10 -10 -11 -11 -10 -10 -4
-13 -13 -13 -13 -13 -14 -14 -16 -14 -13 -13 -12 -11 -12 -11 -10 -10 -10 -10 -10 -10 -10 -10 -10 -9 -10 -11 -10 -10 -9 -9 -9 -9 -9 -11 -10 -10 -10 -9 -10 -11 -12 -5

GFSMA_850_dewp_003.txt.gz
Dewpoint
1 0 -3 -6 -7 -7 -6 -5 -4 -4 -6 -8 -11 -11 -11 -10 -10 -10 -11 -12 -11 -7 1 6 8 8 7 9 9 11 11 11 10 10 9 10 10 9 9 8 7 7 8
-1 -2 -3 -5 -6 -7 -6 -5 -5 -5 -7 -9 -11 -10 -8 -7 -7 -7 -7 -7 -7 -7 -8 -3 4 7 7 7 7 8 10 11 10 10 10 9 9 10 10 10 9 7 7
-5 -5 -6 -6 -7 -7 -6 -5 -7 -8 -9 -10 -10 -8 -7 -6 -7 -7 -6 -6 -7 -7 -8 -7 -7 -3 4 8 8 6 6 7 8 10 10 10 9 10 11 11 11 8 7
-5 -5 -6 -6 -6 -7 -6 -6 -6 -8 -8 -9 -8 -6 -6 -6 -7 -6 -7 -7 -8 -9 -9 -8 -7 -6 -4 -2 4 8 7 7 6 7 9 10 10 9 10 10 11 10 8
-4 -4 -4 -4 -5 -6 -6 -5 -6 -6 -7 -7 -6 -6 -6 -7 -7 -7 -7 -7 -8 -8 -8 -9 -8 -6 -5 -4 -2 -0 4 7 7 7 7 8 9 10 10 10 9 10 10
-3 -3 -2 -3 -3 -4 -5 -5 -6 -6 -6 -6 -6 -6 -7 -7 -7 -7 -8 -7 -7 -8 -8 -9 -9 -9 -8 -5 -4 -3 -2 1 6 5 7 7 8 7 9 9 10 10 10
-2 -2 -3 -3 -2 -3 -3 -5 -5 -4 -6 -6 -5 -5 -6 -6 -7 -7 -8 -7 -7 -7 -7 -7 -8 -8 -9 -10 -6 -3 -2 -2 3 4 3 3 7 9 8 7 8 8 10
-2 -3 -4 -4 -3 -2 -1 -3 -4 -3 -3 -5 -5 -3 -3 -4 -5 -6 -7 -6 -6 -6 -6 -6 -5 -7 -8 -9 -12 -10 -3 -1 -0 1 1 1 2 6 8 9 8 8 7
-4 -5 -5 -5 -5 -5 -4 -2 -2 -4 -1 -2 -4 -4 -3 -3 -4 -5 -6 -6 -6 -6 -6 -6 -5 -6 -10 -13 -16 -16 -12 -2 -1 -1 -1 0 -0 0 1 4 6 6 7
-11 -12 -12 -10 -7 -6 -6 -5 -5 -3 -3 -0 -1 -3 -3 -4 -3 -4 -5 -6 -7 -7 -6 -6 -4 -5 -10 -15 -19 -15 -11 -5 -1 -2 -3 -3 -3 -3 -1 -0 1 4 6
-18 -17 -15 -11 -9 -7 -7 -7 -7 -4 -2 -1 0 -1 -2 -2 -3 -6 -6 -5 -7 -8 -6 -4 -5 -7 -9 -14 -17 -17 -2 -2 -2 -3 -3 -3 -2 1 -2 -2 1 4 6
-17 -15 -10 -7 -6 -6 -6 -5 -4 -2 -0 -0 -1 -2 -2 -4 -5 -5 -5 -5 -4 -4 -4 -4 -6 -7 -9 -11 -14 -10 -4 -2 -1 -2 -3 -2 0 -1 -3 -2 -2 3 6
-13 -7 -5 -5 -6 -5 -4 -4 -4 -3 -2 -1 -2 -1 -1 -1 -3 -3 -2 -2 -2 -4 -5 -5 -6 -6 -6 -7 -13 -13 -5 -4 -1 -1 0 -1 -4 -2 -2 -4 -4 -1 5
-9 -4 -5 -4 -4 -4 -5 -4 -3 -3 -3 -2 -1 -1 -2 -2 -2 -1 -1 -2 -3 -4 -5 -5 -6 -6 -7 -7 -8 -15 -6 -4 -4 -3 -3 -4 -3 -4 -2 -3 -5 -6 -4
-4 -4 -4 -4 -4 -4 -4 -3 -4 -3 -2 -4 -6 -5 -6 -6 -6 -5 -4 -4 -4 -4 -5 -6 -7 -7 -7 -8 -7 -10 -10 -13 -7 -5 -4 -4 -3 -5 -7 -7 -7 -7 -8
-4 -4 -5 -6 -9 -8 -7 -6 -5 -7 -9 -10 -11 -11 -10 -10 -10 -11 -10 -9 -7 -7 -9 -10 -11 -9 -8 -10 -10 -9 -9 -15 -12 -8 -6 -5 -3 -3 -4 -6 -7 -7 -8
-4 -7 -6 -7 -5 -3 -2 -5 -6 -7 -10 -10 -10 -11 -12 -13 -12 -9 -9 -9 -9 -9 -9 -10 -10 -8 -8 -9 -9 -9 -8 -9 -9 -9 -10 -8 -6 -4 -3 -4 -6 -6 -7
-6 -7 -6 -5 -3 -4 -6 -7 -9 -9 -9 -10 -13 -16 -18 -18 -17 -16 -13 -9 -8 -8 -8 -9 -9 -8 -7 -8 -7 -7 -7 -7 -7 -7 -10 -14 -12 -10 -9 -6 -5 -6 -6
-4 -4 -4 -4 -5 -6 -7 -9 -11 -12 -11 -13 -15 -16 -16 -14 -13 -12 -11 -9 -9 -9 -9 -9 -9 -9 -9 -8 -9 -8 -8 -8 -7 -8 -11 -13 -13 -14 -13 -12 -7 -5 -7
-4 -4 -5 -6 -6 -6 -6 -9 -10 -10 -14 -15 -15 -15 -13 -12 -12 -12 -12 -11 -11 -11 -11 -10 -10 -10 -10 -10 -9 -9 -9 -8 -8 -9 -10 -11 -12 -11 -14 -14 -14 -9 -6
-10 -10 -10 -9 -9 -9 -11 -12 -14 -14 -14 -14 -13 -14 -14 -14 -14 -15 -12 -10 -9 -9 -9 -9 -9 -9 -9 -8 -8 -8 -8 -8 -8 -8 -7 -8 -8 -7 -8 -10 -14 -15 -12
-14 -13 -13 -13 -13 -14 -14 -14 -13 -12 -12 -12 -11 -13 -13 -16 -17 -16 -14 -12 -11 -9 -9 -9 -9 -9 -10 -10 -10 -10 -10 -9 -10 -8 -7 -7 -7 -7 -7 -7 -7 -15 -15
-16 -15 -14 -14 -14 -14 -13 -12 -11 -11 -11 -12 -13 -11 -12 -12 -11 -10 -10 -10 -10 -10 -10 -10 -9 -9 -9 -9 -9 -9 -9 -9 -10 -9 -8 -8 -7 -6 -6 -6 -9 -12 -10
-15 -15 -15 -14 -13 -13 -12 -13 -13 -14 -13 -13 -13 -14 -11 -10 -10 -11 -10 -10 -10 -10 -9 -9 -9 -9 -9 -9 -9 -9 -9 -9 -9 -9 -8 -8 -8 -7 -7 -6 -7 -8 -8
-15 -14 -13 -13 -14 -14 -14 -14 -14 -13 -11 -11 -14 -11 -11 -11 -10 -10 -10 -10 -10 -9 -9 -11 -11 -10 -10 -10 -10 -9 -9 -9 -9 -9 -9 -8 -8 -8 -7 -8 -11 -10 -9
-12 -12 -12 -13 -13 -14 -15 -15 -14 -12 -12 -11 -11 -11 -11 -11 -10 -10 -11 -11 -10 -9 -10 -9 -9 -9 -9 -9 -10 -10 -9 -9 -9 -9 -10 -9 -9 -9 -7 -7 -10 -12 -12

GFSMA_850_dewp_006.txt.gz
Dewpoint
8 7 6 5 5 6 6 6 6 4 -4 -4 -6 -8 -6 -6 -7 -1 -0 -6 -7 -7 -9 -10 -3 6 8 7 9 10 11 11 11 11 9 9 9 9 9 8 7 6 5
6 5 4 4 3 4 4 5 4 -0 -1 -4 -2 -6 -6 -2 -1 -4 -2 -2 -6 -7 -7 -7 -7 -6 3 7 7 8 9 10 11 11 11 10 10 10 10 9 9 7 7
0 -2 3 3 3 3 3 5 4 -0 -3 -2 -4 -5 -6 -4 -1 -5 -4 -2 -2 -6 -7 -7 -7 -7 -7 -2 5 7 7 7 8 9 11 10 10 10 10 10 10 10 8
-4 -3 3 3 3 2 4 4 4 3 2 -0 -2 -2 -2 -2 -2 -3 -2 -4 -2 -3 -3 -7 -9 -8 -7 -7 -5 -1 7 8 6 6 7 9 10 10 9 9 10 10 11
-3 -3 -2 0 1 2 1 3 4 3 2 -0 -1 -2 -1 -2 -2 -3 -3 -1 -2 -4 -4 -6 -9 -9 -9 -8 -7 -5 -3 2 7 7 7 7 7 9 10 10 10 11 10
-2 -2 -2 -2 1 5 4 3 3 3 2 1 -2 -3 -2 -1 -1 -2 -2 -2 -3 -1 -2 -2 -2 -1 -9 -9 -10 -8 -6 -4 -2 6 6 6 7 7 7 9 10 10 10
-2 -2 -3 -3 -4 1 2 -1 3 4 4 3 2 -1 -1 -1 0 -1 -2 -3 -3 -2 -1 -0 -4 -4 -4 -8 -10 -9 -10 -6 -4 -2 2 3 5 6 8 7 8 9 10
-5 -9 -10 -7 -2 -0 1 2 3 3 4 4 2 1 -1 -2 -2 -0 -1 -2 -2 -2 -1 -0 -3 -5 -6 -5 -6 -10 -9 -11 -8 -2 -1 2 0 2 3 7 8 7 7
-11 -15 -16 -16 -15 -8 -2 -0 1 2 1 2 3 2 0 -1 -2 -3 -0 -1 -2 -1 -2 -2 -4 -4 -5 -4 -5 -7 -11 -13 -13 -9 -3 -1 -0 -1 -0 1 2 7 8
-17 -20 -20 -21 -20 -13 -3 -1 -2 0 1 1 1 2 2 1 0 -1 -2 -0 -1 -1 -1 -3 -4 -3 -4 -5 -7 -8 -11 -13 -15 -14 -7 -3 -2 -2 -2 -2 -1 -0 1
-9 -15 -18 -18 -13 -8 -3 -6 -4 0 1 1 1 1 2 2 1 1 -1 -1 -1 -2 -3 -3 -2 -3 -3 -4 -5 -4 -10 -14 -15 -12 -9 -4 -2 -2 -2 -3 -3 -2 -0
-5 -4 -9 -11 -6 -4 -2 -2 -1 -1 0 1 1 1 1 0 -0 -1 -1 -2 -2 -2 -3 -3 -3 -3 -3 -3 -4 -7 -12 -15 -8 -7 -6 -5 -3 -3 -2 -2 -2 -3 -3
-5 -3 -7 -1 -1 -1 -1 -0 0 0 -1 -1 -1 -1 -1 -1 -1 -1 -1 -1 -1 -2 -2 -3 -3 -3 -3 -3 -4 -4 -9 -10 -4 -1 -2 -2 -2 -1 -1 -2 -3 -3 -3
-5 -5 -1 -0 -0 -0 -0 0 0 -1 -1 -1 -1 -2 -2 -2 -2 -2 -3 -2 -2 -1 -0 -1 -3 -3 -4 -4 -5 -6 -7 -10 -7 -3 -2 -1 -1 -2 -4 -2 -1 -3 -4
-2 -1 -0 -1 -3 -2 -2 -2 -2 -3 -3 -3 -3 -2 -4 -4 -6 -7 -5 -4 -4 -3 -3 -3 -3 -4 -5 -5 -5 -6 -5 -6 -4 -5 -5 -4 -4 -3 -3 -3 -3 -3 -5
-1 -2 -3 -3 -3 -2 -3 -4 -4 -4 -4 -5 -6 -5 -6 -7 -6 -5 -6 -6 -6 -6 -8 -9 -10 -10 -9 -9 -8 -8 -8 -7 -8 -8 -12 -6 -4 -3 -3 -6 -6 -7 -7
-3 -3 -3 -3 -2 -3 -3 -3 -4 -4 -5 -6 -7 -8 -9 -10 -10 -10 -11 -10 -10 -10 -10 -11 -11 -11 -10 -9 -8 -8 -8 -8 -8 -8 -9 -11 -10 -6 -4 -3 -4 -5 -6
-2 -2 -2 -3 -3 -4 -4 -4 -4 -5 -7 -9 -8 -8 -9 -11 -11 -10 -10 -10 -10 -10 -10 -10 -11 -11 -10 -10 -9 -8 -8 -9 -9 -9 -9 -9 -8 -12 -10 -7 -6 -4 -4
-3 -3 -3 -3 -4 -4 -4 -5 -7 -8 -8 -8 -8 -9 -10 -10 -9 -10 -10 -10 -10 -11 -11 -11 -11 -11 -11 -10 -10 -9 -9 -8 -8 -9 -8 -7 -6 -7 -12 -17 -13 -10 -8
-4 -5 -6 -6 -6 -8 -9 -9 -10 -9 -9 -10 -9 -9 -9 -9 -9 -10 -10 -11 -11 -11 -12 -12 -12 -12 -12 -11 -11 -11 -10 -10 -9 -9 -9 -9 -9 -8 -7 -8 -12 -16 -13
-11 -11 -11 -11 -11 -11 -12 -11 -10 -10 -9 -9 -9 -9 -9 -9 -10 -13 -12 -11 -11 -11 -11 -11 -11 -11 -11 -11 -10 -10 -10 -9 -9 -8 -8 -8 -8 -8 -9 -10 -11 -13 -17
-11 -11 -11 -11 -10 -11 -10 -12 -13 -9 -10 -10 -10 -10 -10 -10 -10 -11 -11 -11 -10 -9 -9 -9 -9 -9 -9 -9 -9 -8 -8 -8 -8 -8 -8 -7 -7 -7 -7 -8 -8 -7 -6
-11 -11 -11 -10 -10 -10 -10 -12 -15 -13 -11 -10 -10 -10 -11 -12 -11 -10 -10 -9 -10 -10 -10 -9 -9 -8 -8 -8 -7 -7 -7 -8 -8 -9 -8 -7 -6 -6 -6 -6 -7 -7 -7
-11 -11 -10 -10 -10 -10 -11 -13 -14 -13 -10 -10 -10 -10 -11 -11 -11 -9 -9 -9 -9 -9 -9 -9 -9 -9 -9 -9 -8 -8 -8 -8 -7 -8 -8 -7 -8 -7 -7 -7 -7 -6 -6
-11 -10 -10 -10 -10 -10 -10 -12 -14 -11 -10 -10 -10 -11 -10 -10 -10 -10 -10 -10 -9 -9 -9 -9 -10 -11 -11 -10 -10 -9 -8 -8 -8 -9 -9 -8 -8 -8 -8 -8 -8 -7 -6
-11 -9 -8 -9 -9 -10 -10 -12 -12 -11 -11 -11 -11 -11 -11 -10 -11 -10 -10 -10 -10 -9 -9 -9 -9 -9 -8 -9 -11 -10 -8 -8 -8 -8 -9 -8 -8 -8 -8 -8 -8 -8 -8

GFSMA_850_dewp_009.txt.gz
Dewpoint
7 6 6 5 4 4 4 4 5 5 4 2 1 1 1 0 1 0 -0 -0 -4 -7 -7 -7 -8 -8 -2 5 7 6 7 7 9 9 9 10 8 8 10 10 9 8 6
6 6 5 4 3 3 3 4 5 5 4 2 1 0 1 -0 -1 0 -1 -1 -2 -5 -7 -7 -8 -8 -8 -5 3 7 7 8 9 9 11 11 9 8 9 10 10 8 7
3 4 5 5 4 3 4 4 4 4 4 4 2 -0 1 1 1 1 0 -2 -1 -2 -5 -7 -7 -7 -7 -7 -6 3 7 7 7 9 10 11 10 9 9 9 9 8 9
4 2 4 4 4 4 4 4 3 4 4 3 2 1 -0 -1 -0 -0 0 -0 -2 -1 -1 -2 -7 -8 -8 -8 -7 -6 -3 6 7 7 7 8 10 10 10 9 10 10 9
1 -2 -1 1 2 4 4 4 4 3 3 3 2 1 -0 -0 -0 -1 -1 -1 -0 -2 -2 -1 -3 -8 -9 -9 -8 -8 -6 -5 0 7 8 8 7 8 10 10 10 10 10
1 -0 1 2 2 3 2 2 3 3 4 3 3 2 1 -1 -1 -1 -0 -1 -1 0 -1 -1 -2 -4 -4 -7 -10 -9 -9 -8 -6 -5 3 7 7 7 7 9 10 10 10
-3 -4 -1 -1 -1 -1 -1 -4 -1 1 2 2 3 4 3 2 1 -1 -0 -0 -1 -1 -1 0 0 -1 -2 -5 -8 -10 -11 -9 -10 -7 -4 -4 -1 5 6 7 7 8 9
-1 -1 -3 -3 -3 -2 -3 -3 -2 -0 1 1 2 3 3 2 1 1 -0 0 -1 -1 -2 -1 1 -0 -2 -3 -3 -9 -9 -10 -11 -10 -9 -3 -2 -4 1 4 7 7 7
-1 -2 -2 -1 -1 -1 -1 -2 -1 -1 0 0 0 1 2 1 1 -0 0 1 0 -1 -1 -2 -0 -0 -2 -2 -3 -5 -6 -8 -8 -11 -10 -11 -4 -3 -2 -0 1 6 8
-3 -3 -3 -1 0 -1 -1 -1 -2 -1 -0 -0 -0 -1 -1 1 2 2 1 1 1 0 -0 -1 -1 -1 -2 -2 -2 -3 -4 -5 -6 -7 -11 -12 -11 -3 -4 -3 -2 -1 1
-3 -3 -3 -2 -2 -1 -0 0 0 1 1 -0 -0 0 1 1 1 2 3 3 1 2 1 1 0 -2 -2 -2 -3 -3 -4 -5 -6 -6 -7 -12 -13 -8 -1 -2 -3 -3 -3
-3 -4 -3 -1 -0 -0 0 -0 -0 0 0 0 1 1 0 0 1 0 0 1 2 1 2 1 2 -0 -1 -1 -2 -3 -3 -4 -6 -8 -8 -10 -12 -10 -5 -0 -0 -2 -1
-3 -3 -1 -0 -1 -1 -1 -0 -0 -1 1 -0 -0 -0 -1 -2 -2 -2 -1 -1 -1 0 1 2 0 0 -0 -2 -2 -3 -4 -5 -8 -11 -11 -11 -12 -12 -8 -5 -3 -1 0
-2 -2 -1 -1 -1 -1 -2 -1 -0 -1 -1 -1 -2 -2 -2 -3 -2 -2 -4 -3 -2 -2 -1 -1 -0 0 -0 -1 -2 -3 -4 -5 -7 -9 -4 -2 -2 -4 -7 -3 -2 -2 -3
-2 -2 -2 -2 -2 -3 -2 -2 -2 -2 -2 -2 -3 -3 -3 -3 -3 -3 -3 -3 -4 -3 -3 -3 -2 -1 -1 -0 -2 -4 -4 -4 -5 -7 -8 -3 -2 -2 -1 -2 -2 -3 -2
-2 -2 -3 -2 -1 -2 -2 -2 -3 -3 -3 -3 -3 -4 -4 -4 -5 -5 -4 -3 -3 -3 -4 -6 -7 -6 -6 -6 -6 -6 -5 -6 -6 -6 -6 -5 -5 -4 -2 -2 -3 -3 -3
-2 -2 -2 -4 -3 -3 -3 -3 -3 -3 -3 -3 -4 -5 -6 -6 -7 -9 -10 -10 -9 -8 -8 -9 -10 -10 -10 -10 -9 -8 -7 -7 -7 -8 -8 -8 -9 -10 -6 -2 -2 -4 -5
-2 -2 -2 -3 -3 -3 -3 -3 -4 -4 -5 -5 -5 -6 -6 -7 -7 -9 -9 -10 -10 -10 -10 -10 -10 -10 -10 -10 -10 -9 -8 -8 -8 -9 -9 -9 -8 -9 -11 -11 -6 -3 -3
-5 -5 -5 -5 -6 -7 -8 -9 -10 -9 -8 -8 -8 -8 -9 -9 -10 -10 -9 -9 -10 -10 -10 -11 -11 -11 -11 -11 -11 -10 -10 -9 -9 -9 -8 -8 -8 -7 -8 -10 -13 -12 -8
-9 -10 -11 -11 -11 -11 -11 -11 -10 -9 -10 -11 -10 -10 -10 -9 -9 -9 -9 -9 -10 -10 -11 -11 -12 -12 -12 -12 -12 -11 -11 -10 -10 -10 -10 -10 -10 -9 -8 -8 -8 -9 -11
-11 -11 -11 -11 -11 -11 -11 -11 -10 -9 -9 -10 -10 -10 -10 -10 -9 -10 -10 -10 -10 -10 -10 -11 -11 -11 -12 -12 -11 -11 -10 -10 -9 -9 -8 -9 -8 -8 -9 -9 -10 -10 -11
-11 -11 -11 -11 -10 -11 -11 -10 -10 -11 -10 -10 -10 -11 -11 -11 -9 -10 -10 -11 -11 -10 -10 -10 -10 -10 -10 -10 -9 -9 -8 -8 -8 -8 -7 -8 -7 -6 -6 -6 -7 -7 -7
-11 -11 -11 -11 -10 -10 -9 -10 -10 -11 -10 -10 -10 -10 -10 -11 -11 -10 -10 -9 -8 -9 -9 -9 -9 -9 -9 -8 -8 -7 -7 -7 -7 -7 -7 -7 -7 -7 -7 -6 -7 -7 -7
-11 -11 -11 -10 -9 -10 -8 -9 -10 -10 -10 -10 -10 -10 -9 -10 -11 -10 -8 -9 -9 -9 -9 -9 -8 -8 -9 -9 -9 -8 -8 -7 -7 -7 -6 -7 -8 -8 -8 -8 -8 -8 -7
-11 -11 -10 -9 -8 -9 -10 -10 -11 -11 -11 -11 -11 -10 -10 -10 -11 -11 -10 -10 -9 -9 -9 -9 -9 -10 -11 -11 -11 -9 -8 -8 -8 -8 -8 -8 -8 -9 -8 -9 -9 -10 -10
-11 -9 -8 -8 -9 -9 -9 -10 -11 -12 -12 -11 -11 -11 -11 -10 -10 -10 -10 -10 -10 -9 -9 -10 -9 -9 -8 -9 -9 -10 -10 -9 -9 -9 -9 -8 -8 -8 -7 -8 -10 -11 -10

GFSMA_850_dewp_015.txt.gz
Dewpoint
-2 -3 -3 -2 -1 0 2 1 1 -0 2 3 4 4 4 3 2 0 -1 -3 -2 -0 -1 -3 -5 -8 -8 -8 -8 -7 -0 5 5 6 8 6 7 6 6 7 7 10 9
-3 -3 -3 -3 -2 -1 1 1 1 -0 3 4 3 4 4 4 3 2 1 -1 -2 -3 -2 -2 -4 -5 -7 -8 -8 -8 -8 -4 4 6 6 7 6 6 5 8 7 10 9
2 1 0 -0 -0 -1 -1 -2 -3 -2 1 1 4 3 3 4 3 3 3 1 -0 -1 -1 -3 -4 -4 -4 -7 -8 -8 -8 -7 -4 5 8 7 6 7 4 9 8 7 10
3 2 1 -2 -2 -2 -2 -2 -2 -1 1 3 4 4 4 2 2 3 4 3 0 -0 -0 -1 -2 -2 -3 -4 -5 -7 -8 -7 -7 -4 4 8 8 8 7 9 9 8 9
2 1 1 -1 1 -1 -2 -2 -3 -2 0 -1 -5 -10 -10 -4 1 -4 -4 1 1 1 0 -0 -1 -1 -1 -2 -4 -7 -8 -8 -8 -7 -4 3 7 9 9 9 10 9 8
1 1 0 1 1 -1 -2 -4 -5 -5 -7 -8 -7 -9 -11 -11 -5 -2 -0 0 4 3 2 1 -0 -1 -1 -1 -2 -4 -5 -8 -8 -8 -8 -6 -0 7 7 8 9 9 8
1 1 1 0 -2 -2 -3 -3 -5 -7 -14 -13 -8 -7 -8 -9 -9 -8 -9 -4 1 3 3 3 1 0 -1 -1 -1 -2 -3 -5 -8 -9 -9 -8 -8 -5 4 7 8 8 8
2 2 1 -2 -3 -3 -4 -5 -4 -7 -4 -2 0 0 -0 -4 -5 -6 -5 -1 1 1 1 3 3 3 1 -0 -1 -1 -2 -3 -5 -9 -10 -10 -9 -8 -6 -1 7 8 8
1 -1 -2 -2 -3 -5 -3 -4 -7 -3 0 0 -0 -1 0 0 0 -2 -3 -1 -0 1 1 2 3 5 4 3 3 1 -1 -1 -4 -7 -9 -10 -10 -10 -9 -7 -4 4 7
-1 -1 -2 -3 -7 -7 -7 -8 -1 1 0 -0 0 1 1 -0 -2 -2 -3 -4 -4 -3 -1 -0 1 2 5 4 4 3 2 -1 -3 -6 -8 -9 -10 -11 -10 -10 -9 -6 -2
-0 -1 -4 -9 -8 -3 -1 -0 -0 -0 -1 -1 -1 -1 -2 -1 -3 -2 -3 -3 -5 -6 -8 -7 -6 -4 1 4 4 4 3 1 -2 -3 -5 -7 -7 -8 -11 -10 -10 -8 -6
-2 -6 -6 -5 -3 -1 -1 -1 -1 -3 -3 -3 -2 -3 -3 -2 -1 -1 -2 -3 -3 -6 -7 -7 -6 -5 -3 2 3 2 1 2 0 -2 -3 -5 -7 -7 -8 -6 -1 -7 -7
-5 -4 -4 -4 -3 -3 -2 -2 -2 -3 -3 -2 -3 -4 -4 -4 -3 -3 -2 -2 -3 -5 -5 -7 -7 -3 -3 -3 -0 1 0 1 0 -2 -4 -4 -4 -6 -7 -8 -3 2 1
-3 -2 -2 -5 -4 -2 -3 -2 -2 -2 -2 -4 -5 -5 -3 -3 -3 -2 -3 -3 -3 -3 -3 -3 -6 -6 -6 -7 -6 -0 -0 0 0 -1 -4 -4 -4 -5 -6 -9 -8 -3 -0
-2 -2 -8 -4 -3 -5 -5 -5 -5 -6 -6 -5 -4 -4 -4 -4 -3 -3 -3 -3 -3 -3 -4 -5 -7 -8 -8 -7 -6 -6 -2 -1 -1 -1 -3 -5 -3 -6 -8 -5 -3 1 1
-4 -9 -9 -7 -5 -5 -5 -6 -7 -8 -8 -8 -8 -7 -6 -6 -5 -5 -4 -4 -4 -4 -4 -6 -8 -9 -8 -8 -6 -6 -5 -1 -2 -2 -2 -4 -5 -6 -9 -5 -2 -0 1
-11 -7 -6 -6 -8 -10 -10 -11 -11 -11 -10 -10 -9 -7 -6 -7 -7 -6 -7 -7 -7 -7 -5 -7 -8 -9 -9 -9 -10 -9 -9 -6 -3 -4 -4 -5 -6 -7 -6 -6 -5 -4 -1
-6 -7 -7 -8 -10 -11 -11 -11 -11 -11 -11 -10 -9 -9 -10 -10 -13 -10 -9 -9 -9 -10 -9 -9 -8 -9 -9 -9 -10 -10 -10 -10 -6 -5 -4 -6 -7 -7 -8 -9 -9 -8 -7
-6 -7 -9 -10 -11 -11 -11 -11 -11 -10 -11 -11 -11 -11 -12 -14 -15 -13 -10 -9 -8 -8 -8 -8 -9 -10 -10 -10 -10 -11 -11 -12 -11 -10 -9 -9 -8 -8 -8 -8 -8 -9 -9
-7 -9 -11 -11 -12 -11 -11 -11 -11 -11 -11 -11 -10 -10 -11 -11 -12 -13 -10 -10 -9 -9 -9 -9 -10 -11 -14 -14 -13 -12 -12 -12 -12 -13 -12 -11 -10 -10 -9 -9 -9 -8 -8
-9 -11 -11 -12 -11 -11 -11 -10 -10 -10 -11 -11 -10 -12 -14 -14 -10 -9 -8 -8 -8 -7 -8 -9 -11 -12 -12 -12 -13 -10 -9 -9 -7 -8 -9 -9 -9 -9 -9 -9 -9 -9 -9
-10 -10 -12 -11 -10 -10 -9 -9 -9 -10 -12 -12 -13 -14 -15 -13 -11 -10 -10 -9 -9 -8 -8 -9 -10 -9 -10 -10 -12 -13 -12 -11 -10 -9 -6 -7 -7 -7 -7 -8 -7 -7 -7
-9 -12 -11 -10 -9 -9 -8 -8 -10 -11 -10 -11 -11 -13 -15 -14 -13 -12 -11 -10 -10 -10 -9 -8 -9 -9 -10 -12 -11 -10 -10 -10 -9 -11 -11 -10 -10 -9 -10 -10 -11 -10 -9
-10 -11 -9 -9 -9 -8 -10 -12 -11 -10 -10 -10 -12 -13 -14 -13 -12 -12 -12 -12 -12 -13 -13 -12 -13 -13 -10 -11 -9 -9 -9 -9 -9 -9 -10 -9 -12 -11 -11 -10 -10 -10 -9
-10 -9 -9 -10 -9 -10 -12 -11 -10 -11 -11 -12 -13 -13 -13 -13 -13 -12 -11 -11 -11 -11 -12 -11 -11 -10 -9 -10 -9 -9 -9 -9 -9 -12 -12 -12 -10 -9 -11 -12 -12 -11 -11
-9 -10 -10 -9 -10 -12 -11 -10 -11 -11 -11 -12 -13 -14 -14 -12 -11 -11 -11 -12 -12 -13 -12 -11 -11 -10 -11 -13 -13 -13 -13 -12 -9 -9 -12 -11 -12 -12 -11 -11 -11 -12 -12

GFSMA_850_dewp_018.txt.gz
Dewpoint
-3 -2 0 2 2 2 2 2 2 0 -2 -1 2 3 4 4 4 4 3 3 2 1 -1 -3 -4 -4 -6 -6 -8 -8 -8 -7 -2 3 5 7 7 7 8 8 6 4 6
-1 -0 1 1 2 1 0 -0 -1 -2 -2 -3 -2 -0 3 3 4 4 4 3 3 3 1 -0 -1 -4 -5 -5 -6 -7 -8 -8 -8 -6 1 6 8 8 7 9 7 6 5
1 1 0 -0 -2 -2 -1 -1 -2 -2 -3 -3 -2 -0 3 4 3 4 4 3 4 3 1 0 -0 -1 -2 -3 -5 -6 -6 -7 -8 -7 -6 -0 6 7 8 9 8 5 5
4 3 2 1 -1 -1 -1 1 -0 -2 -2 -4 -5 -6 -7 -10 -12 -11 -8 -4 -3 -1 2 2 1 0 -0 -1 -2 -4 -4 -6 -7 -7 -7 -6 1 7 7 7 8 7 6
3 2 2 1 1 1 0 1 -2 -4 -6 -9 -11 -13 -14 -14 -14 -12 -10 -9 -3 0 3 4 3 2 1 -0 -1 -1 -2 -4 -6 -7 -8 -7 -6 1 7 9 7 7 8
1 1 1 2 2 1 1 -2 -3 -7 -8 -9 -11 -12 -13 -13 -12 -10 -6 -4 -5 -0 1 1 2 3 2 1 -0 -1 -1 -1 -3 -4 -6 -8 -8 -5 2 7 9 8 8
1 2 2 2 1 -2 -3 -3 -5 -6 -8 -10 -10 -9 -9 -8 -3 -2 -5 -3 -2 1 1 1 2 3 3 2 1 -0 -1 -1 -1 -2 -4 -5 -8 -7 -5 2 6 7 9
2 1 -1 -2 -2 -3 -4 -6 -8 -8 -12 -7 -2 -1 -1 -3 -3 -2 -4 -1 -2 -2 -1 0 2 2 3 3 3 3 2 -0 -1 -1 -2 -4 -8 -9 -8 -4 2 6 7
-0 -0 -1 -1 -2 -4 -8 -12 -12 -9 -3 -1 0 -0 1 -0 -0 -2 -3 -3 -3 -5 -6 -6 -4 -3 2 4 3 3 2 1 -0 -2 -2 -1 -5 -9 -10 -6 -3 2 6
1 0 0 -1 -7 -15 -14 -6 -2 -1 -0 -2 -3 -2 -1 -0 -0 -1 -2 -3 -4 -6 -8 -6 -8 -8 -7 -4 2 4 3 3 2 1 -1 -1 -4 -8 -10 -10 -6 -2 0
1 -0 -6 -13 -13 -7 -5 -3 -2 -2 -2 -3 -2 -3 -3 -3 -4 -3 -2 -2 -5 -7 -7 -6 -7 -6 -5 -5 -4 -4 0 4 3 2 -0 -1 -4 -8 -10 -10 -10 -8 -5
1 -6 -10 -8 -5 -6 -6 -3 -2 -2 -2 -2 -2 -2 -2 -2 -3 -3 -2 -4 -3 -5 -6 -6 -6 -6 -3 -5 -5 -2 2 1 2 4 1 -1 -5 -6 -8 -9 -10 -1 -4
-5 -5 -5 -3 -7 -11 -6 -5 -5 -4 -4 -4 -4 -4 -4 -4 -3 -3 -3 -3 -2 -3 -4 -6 -5 -7 -6 -7 -6 -6 -4 1 1 2 3 1 -4 -7 -8 -8 -8 -5 3
-4 -3 -3 -10 -12 -9 -7 -7 -6 -7 -6 -6 -7 -6 -5 -4 -4 -4 -3 -3 -3 -3 -3 -4 -6 -8 -8 -7 -7 -5 -5 -4 -0 0 0 -1 -3 -4 -6 -7 -7 -8 -2
-3 -4 -12 -13 -11 -8 -7 -8 -10 -11 -11 -10 -10 -9 -7 -5 -5 -4 -4 -5 -5 -5 -5 -4 -6 -7 -9 -9 -7 -6 -6 -6 -5 -1 -0 -1 -1 -1 -5 -6 -6 -8 -7
-3 -9 -11 -10 -9 -8 -9 -10 -11 -11 -11 -11 -10 -10 -8 -8 -8 -10 -11 -8 -6 -5 -6 -7 -9 -8 -8 -9 -9 -9 -8 -5 -5 -2 -2 -2 -3 -2 -2 -2 -5 -3 -3
-4 -4 -7 -7 -8 -8 -11 -11 -11 -11 -11 -11 -10 -10 -10 -11 -12 -12 -13 -13 -11 -8 -7 -8 -9 -9 -10 -10 -9 -10 -9 -10 -8 -4 -3 -3 -3 -3 -3 -2 -1 -5 -2
-4 -5 -7 -7 -8 -11 -11 -12 -13 -13 -12 -11 -11 -11 -13 -13 -12 -12 -13 -15 -15 -10 -8 -8 -8 -9 -9 -10 -10 -9 -10 -10 -11 -9 -7 -4 -3 -4 -3 -5 -6 -4 -5
-4 -6 -7 -8 -11 -11 -12 -11 -11 -11 -10 -10 -10 -11 -12 -12 -13 -13 -14 -14 -15 -12 -9 -9 -9 -8 -8 -9 -11 -14 -13 -11 -11 -12 -12 -8 -8 -5 -4 -4 -6 -7 -8
-3 -7 -7 -9 -11 -12 -11 -11 -10 -10 -10 -9 -10 -12 -13 -14 -15 -16 -11 -10 -9 -8 -10 -9 -8 -8 -9 -11 -12 -14 -15 -12 -13 -13 -12 -11 -11 -10 -8 -6 -7 -9 -8
-5 -6 -11 -11 -12 -11 -10 -9 -9 -9 -8 -11 -12 -12 -12 -13 -14 -14 -10 -10 -10 -9 -9 -8 -8 -8 -9 -11 -12 -12 -12 -13 -11 -9 -8 -7 -9 -11 -10 -10 -10 -9 -9
-7 -6 -8 -11 -11 -9 -9 -8 -8 -10 -12 -11 -11 -11 -12 -13 -15 -14 -12 -12 -11 -10 -10 -9 -8 -8 -9 -10 -10 -11 -13 -12 -14 -12 -10 -8 -7 -7 -7 -7 -7 -7 -8
-7 -7 -8 -10 -9 -9 -8 -9 -11 -11 -10 -11 -12 -12 -13 -14 -15 -13 -13 -14 -13 -13 -12 -11 -10 -9 -10 -10 -11 -12 -12 -11 -10 -13 -12 -12 -11 -9 -8 -9 -8 -8 -9
-6 -9 -9 -9 -10 -9 -11 -12 -11 -11 -11 -12 -12 -13 -13 -14 -13 -13 -12 -11 -11 -11 -11 -11 -11 -11 -12 -12 -11 -11 -10 -9 -10 -10 -10 -10 -14 -13 -13 -12 -11 -11 -11
-9 -9 -9 -10 -9 -11 -13 -13 -13 -15 -15 -15 -15 -15 -13 -13 -13 -12 -12 -12 -11 -13 -13 -11 -10 -9 -10 -10 -9 -9 -10 -9 -9 -11 -12 -11 -12 -12 -12 -13 -13 -13 -12
-8 -9 -10 -9 -10 -12 -14 -15 -16 -14 -14 -14 -14 -14 -14 -12 -12 -12 -12 -11 -12 -13 -13 -13 -13 -13 -11 -10 -9 -10 -12 -13 -13 -13 -14 -12 -12 -11 -11 -14 -13 -11 -11

GFSMA_850_dewp_021.txt.gz
Dewpoint
-1 -1 -1 -1 0 1 0 -1 -1 -2 -1 -1 -2 -2 -0 2 4 4 4 4 4 3 3 2 2 0 -1 -3 -4 -4 -6 -7 -8 -7 -4 3 5 6 7 8 9 8 6
0 -0 0 0 0 -2 -2 -2 -1 -0 0 -0 -1 -2 -3 0 4 4 4 4 4 4 4 3 1 1 0 -0 -2 -3 -4 -5 -7 -8 -8 -7 1 6 7 7 8 9 6
3 4 3 2 1 -1 -1 1 1 1 1 -1 -3 -5 -6 -7 -8 -10 -11 -9 -5 -3 -1 3 3 2 0 0 -0 -1 -2 -3 -4 -5 -6 -8 -7 -1 6 8 7 8 8
5 4 3 3 2 1 1 1 1 1 -2 -5 -8 -10 -11 -12 -14 -14 -13 -12 -8 -4 -3 -0 1 2 1 1 1 0 -0 -1 -2 -2 -5 -7 -7 -7 -0 7 7 8 9
4 3 2 1 1 2 1 -1 -3 -3 -3 -7 -8 -8 -8 -9 -10 -10 -10 -9 -7 -5 -5 -5 -2 1 3 2 2 1 0 0 -0 -1 -1 -4 -5 -8 -7 1 7 8 9
2 1 1 2 0 -2 -3 -3 -3 -3 -4 -7 -10 -13 -13 -15 -14 -6 -2 -1 -2 -4 -3 -0 0 1 1 2 3 2 1 -0 -0 -1 -1 -1 -2 -4 -7 -7 1 7 9
2 2 -0 -1 -1 -2 -1 -2 -3 -4 -7 -14 -11 -8 -10 -4 -6 -7 -4 -2 -4 -4 -4 -3 -2 -0 1 1 3 3 2 1 1 0 -0 -1 -1 -2 -2 -8 -7 0 7
0 -1 1 1 -0 -0 -1 -2 -5 -14 -16 -10 -3 -2 -2 -4 -2 -4 -4 -2 -3 -4 -5 -7 -7 -7 -4 0 1 2 3 2 1 4 2 1 1 -1 -2 -5 -9 -8 -3
0 0 0 -0 -1 -4 -10 -17 -20 -17 -12 -10 -3 -3 -3 -2 -2 -3 -4 -4 -3 -4 -6 -7 -8 -8 -9 -10 -5 -0 3 3 2 2 2 3 0 2 0 -1 -7 -10 -7
1 1 1 1 -7 -14 -16 -18 -16 -11 -7 -5 -4 -4 -3 -2 -2 -3 -3 -5 -7 -7 -8 -7 -7 -6 -8 -9 -9 -8 -3 1 3 3 1 1 -0 -1 2 -1 -6 -10 -9
1 -1 -2 -6 -10 -11 -15 -15 -8 -4 -2 -2 -2 -2 -3 -3 -3 -2 -3 -3 -3 -6 -8 -6 -5 -6 -6 -4 -5 -5 -5 -4 -2 1 3 3 2 2 0 -0 -5 -9 -10
-5 -5 -6 -6 -7 -13 -17 -13 -9 -7 -5 -5 -5 -6 -5 -4 -4 -3 -3 -3 -3 -3 -3 -3 -5 -5 -7 -6 -6 -6 -5 -4 -4 -3 -1 3 3 2 1 -2 -7 -8 -10
-4 -5 -5 -4 -10 -16 -15 -11 -9 -8 -8 -9 -8 -8 -8 -8 -7 -5 -4 -4 -4 -5 -5 -4 -3 -6 -8 -8 -7 -6 -6 -6 -4 -0 1 2 2 2 1 -4 -7 -5 -8
-3 -3 -2 -7 -11 -10 -10 -10 -9 -9 -10 -11 -11 -10 -10 -10 -6 -7 -7 -6 -5 -5 -7 -7 -5 -6 -8 -8 -9 -7 -6 -7 -8 -5 -1 0 0 1 0 1 -5 -7 -5
-3 -2 -3 -7 -3 -6 -7 -8 -10 -11 -11 -11 -11 -11 -11 -11 -8 -8 -10 -11 -10 -6 -5 -6 -8 -9 -7 -7 -9 -9 -9 -9 -8 -9 -6 -2 -0 -1 -1 -3 -4 -6 -7
-3 -3 -4 -3 -5 -7 -8 -11 -11 -12 -14 -15 -13 -11 -11 -11 -11 -13 -14 -14 -13 -13 -9 -8 -10 -8 -9 -12 -14 -10 -9 -10 -10 -9 -8 -3 -2 -1 -2 -3 -1 1 -0
-2 -3 -3 -5 -6 -8 -10 -11 -12 -13 -14 -12 -11 -11 -11 -11 -11 -12 -13 -14 -13 -13 -14 -14 -10 -8 -8 -9 -11 -13 -11 -9 -10 -10 -8 -7 -4 -2 -2 -2 -1 -2 -2
-4 -4 -4 -4 -6 -9 -11 -11 -12 -13 -12 -10 -10 -10 -9 -9 -11 -13 -14 -15 -16 -14 -13 -14 -12 -7 -7 -8 -9 -10 -12 -12 -10 -10 -11 -11 -7 -4 -3 -3 -3 -3 -1
-5 -4 -3 -5 -8 -7 -11 -11 -11 -11 -10 -9 -9 -8 -10 -12 -12 -13 -14 -15 -16 -11 -9 -8 -10 -10 -9 -9 -9 -11 -13 -13 -14 -15 -12 -12 -10 -6 -4 -3 -3 -3 -3
-3 -3 -5 -7 -10 -10 -8 -10 -10 -9 -8 -8 -9 -12 -12 -11 -11 -12 -13 -15 -12 -10 -10 -10 -9 -8 -8 -8 -9 -10 -12 -14 -15 -16 -12 -11 -12 -10 -7 -6 -5 -4 -4
-3 -3 -4 -10 -9 -8 -9 -9 -9 -9 -9 -11 -12 -11 -11 -12 -11 -11 -12 -12 -12 -12 -12 -10 -10 -9 -9 -8 -9 -10 -11 -13 -13 -15 -14 -8 -7 -8 -8 -6 -5 -5 -4
-5 -4 -6 -8 -8 -9 -9 -9 -9 -11 -12 -12 -12 -12 -12 -12 -14 -14 -15 -12 -11 -11 -12 -12 -11 -11 -10 -8 -9 -9 -10 -11 -12 -14 -15 -13 -8 -7 -7 -7 -6 -6 -5
-4 -8 -6 -8 -8 -9 -9 -10 -12 -13 -15 -15 -15 -13 -13 -14 -15 -13 -13 -14 -12 -11 -11 -11 -11 -12 -11 -11 -10 -10 -11 -11 -12 -13 -11 -13 -13 -10 -7 -8 -8 -7 -7
-6 -7 -9 -8 -9 -9 -10 -12 -14 -16 -18 -16 -15 -15 -14 -13 -13 -12 -12 -12 -13 -12 -12 -11 -11 -10 -11 -11 -11 -12 -12 -11 -11 -11 -11 -10 -13 -13 -13 -11 -7 -8 -9
-8 -8 -8 -8 -9 -10 -12 -14 -17 -18 -16 -15 -15 -14 -13 -13 -12 -12 -12 -11 -11 -13 -13 -14 -13 -13 -11 -10 -10 -10 -10 -10 -10 -11 -10 -10 -12 -12 -13 -13 -14 -13 -12
-8 -8 -9 -9 -10 -12 -13 -16 -18 -16 -15 -15 -14 -14 -13 -13 -13 -13 -12 -12 -12 -12 -12 -12 -12 -13 -12 -13 -12 -10 -10 -10 -10 -12 -14 -13 -14 -14 -12 -12 -14 -14 -13

GFSMA_850_dewp_024.txt.gz
Dewpoint
1 -1 -1 0 2 2 -0 -1 -1 1 1 1 1 0 -2 -3 -2 2 3 3 3 3 0 -3 -0 1 1 2 1 -1 -2 -4 -4 -6 -7 -7 -5 2 4 6 8 8 8
3 1 1 2 2 -0 -1 -0 1 1 0 -1 -3 -4 -7 -9 -10 -10 -9 -5 -1 1 2 2 -2 -2 1 1 0 0 -0 -1 -2 -4 -5 -6 -8 -7 -2 5 7 8 9
4 4 5 4 3 2 1 1 1 -2 -3 -4 -4 -5 -7 -9 -10 -11 -12 -13 -13 -13 -11 -8 -5 -3 1 1 0 0 -0 0 -0 -1 -3 -3 -6 -7 -7 -5 5 7 8
5 5 4 3 2 1 0 -2 -2 -3 -3 -4 -4 -5 -5 -6 -7 -9 -10 -9 -7 -8 -10 -11 -9 -4 -2 -0 1 1 0 1 1 0 -0 -1 -3 -6 -7 -7 -3 6 8
5 3 2 2 2 -0 -1 -1 -1 -1 -2 -3 -3 -5 -10 -14 -16 -15 -8 -2 -1 -1 -2 -2 -3 -6 -6 -3 1 2 1 1 1 3 2 0 -0 -1 -3 -6 -7 -1 7
3 2 3 1 -0 0 0 -0 -0 -1 -2 -5 -10 -19 -22 -23 -18 -9 -7 -7 -6 -4 -4 -4 -4 -4 -3 -3 -1 0 3 3 1 1 4 5 2 -0 -1 -2 -4 -7 -1
2 1 0 -0 1 1 1 0 -2 -7 -14 -21 -23 -26 -27 -10 -12 -19 -8 -6 -13 -11 -8 -9 -9 -8 -8 -7 -3 -1 1 2 2 2 1 4 5 3 0 -1 -2 -4 -8
1 1 1 1 1 1 0 -7 -17 -21 -21 -18 -13 -13 -8 -10 -8 -7 -12 -9 -8 -11 -9 -9 -11 -11 -12 -12 -14 -11 -5 -1 2 3 2 1 3 5 4 1 -1 -2 -7
1 1 1 -0 -4 -5 -9 -13 -18 -21 -17 -16 -10 -6 -4 -4 -4 -6 -10 -10 -5 -6 -8 -10 -9 -9 -9 -9 -10 -11 -12 -10 -3 1 3 2 3 4 4 3 1 -1 -2
1 -1 -6 -8 -7 -7 -8 -15 -19 -17 -13 -6 -4 -2 -2 -2 -3 -4 -4 -4 -5 -5 -7 -9 -7 -6 -5 -6 -7 -8 -9 -10 -10 -5 -0 3 3 2 4 3 2 -1 -1
-3 -4 -4 -5 -5 -4 -11 -15 -14 -10 -9 -7 -7 -7 -8 -7 -6 -4 -5 -5 -6 -5 -5 -7 -5 -4 -4 -6 -4 -6 -6 -6 -7 -8 -6 -2 2 3 2 2 5 1 -0
-5 -4 -4 -5 -5 -4 -11 -14 -15 -14 -13 -11 -10 -10 -9 -8 -7 -6 -5 -5 -5 -4 -6 -5 -5 -4 -5 -7 -7 -7 -7 -7 -6 -6 -5 -5 -3 1 4 4 4 4 1
-4 -4 -3 -3 -3 -7 -8 -4 -10 -10 -11 -11 -11 -12 -11 -11 -10 -10 -7 -8 -9 -10 -10 -10 -6 -5 -4 -7 -8 -8 -7 -6 -7 -7 -7 -4 -1 0 3 3 4 2 0
-3 -2 -2 -2 -3 -4 -4 -5 -9 -12 -13 -13 -14 -13 -12 -11 -11 -9 -10 -11 -11 -10 -11 -10 -11 -8 -8 -7 -7 -9 -9 -8 -7 -8 -9 -9 -4 -0 0 2 1 -1 -5
-3 -2 -3 -3 -4 -3 -5 -7 -9 -11 -11 -13 -14 -14 -13 -12 -11 -11 -11 -12 -12 -10 -11 -12 -12 -13 -13 -11 -10 -8 -8 -9 -9 -10 -10 -11 -10 -4 -2 0 1 1 0
-3 -3 -5 -4 -4 -4 -5 -7 -9 -11 -12 -13 -12 -11 -11 -10 -10 -10 -9 -10 -11 -13 -11 -12 -14 -13 -14 -13 -12 -11 -14 -15 -10 -10 -10 -11 -11 -8 -4 -1 -0 -0 -0
-10 -10 -5 -3 -3 -5 -5 -6 -9 -11 -11 -11 -10 -10 -10 -10 -9 -9 -11 -13 -13 -15 -15 -16 -16 -16 -14 -13 -8 -9 -10 -15 -14 -11 -10 -10 -11 -12 -9 -3 -1 -1 0
-12 -7 -4 -5 -4 -4 -8 -8 -10 -10 -11 -10 -9 -9 -9 -9 -10 -12 -12 -12 -12 -13 -15 -13 -14 -15 -14 -13 -7 -7 -10 -11 -11 -13 -13 -11 -10 -11 -11 -6 -2 -2 -2
-13 -6 -5 -5 -4 -8 -7 -9 -10 -10 -10 -9 -8 -9 -9 -11 -12 -12 -11 -11 -12 -13 -13 -10 -11 -11 -11 -10 -10 -8 -9 -10 -11 -13 -14 -14 -15 -11 -11 -9 -3 -3 -2
-10 -7 -5 -4 -4 -7 -9 -9 -10 -9 -9 -9 -10 -12 -12 -12 -12 -12 -11 -12 -11 -12 -12 -12 -12 -12 -9 -11 -9 -8 -8 -9 -11 -13 -15 -16 -15 -12 -11 -9 -6 -4 -3
-7 -4 -5 -5 -6 -7 -7 -9 -8 -9 -10 -12 -14 -16 -16 -15 -11 -11 -11 -12 -12 -12 -12 -12 -12 -12 -11 -11 -9 -9 -8 -9 -11 -12 -15 -16 -11 -7 -10 -8 -8 -7 -6
-6 -5 -4 -6 -7 -8 -8 -8 -10 -11 -13 -16 -18 -17 -15 -15 -15 -12 -13 -12 -12 -12 -12 -11 -12 -11 -12 -13 -12 -10 -9 -9 -9 -11 -13 -15 -14 -8 -6 -5 -6 -8 -8
-6 -6 -6 -7 -8 -8 -9 -10 -10 -13 -17 -19 -16 -15 -15 -14 -14 -14 -13 -13 -12 -12 -12 -12 -11 -12 -11 -11 -13 -12 -11 -10 -10 -11 -11 -14 -14 -14 -7 -7 -5 -5 -6
-5 -6 -8 -8 -8 -9 -9 -10 -13 -17 -19 -17 -16 -15 -14 -14 -14 -12 -12 -12 -13 -13 -12 -12 -12 -13 -13 -12 -10 -11 -11 -11 -11 -12 -11 -11 -12 -14 -14 -10 -6 -7 -6
-6 -6 -8 -8 -9 -9 -10 -13 -16 -19 -18 -16 -15 -15 -14 -14 -13 -12 -13 -12 -13 -12 -12 -12 -12 -12 -13 -14 -13 -11 -10 -11 -11 -10 -11 -10 -11 -12 -13 -13 -13 -11 -6
-7 -8 -8 -9 -9 -10 -12 -14 -16 -18 -17 -16 -15 -15 -15 -14 -13 -13 -13 -13 -13 -13 -13 -13 -12 -12 -12 -13 -13 -13 -12 -10 -10 -10 -11 -11 -13 -13 -12 -14 -14 -15 -14

GFSMA_850_dewp_030.txt.gz
Dewpoint
5 4 3 3 3 2 1 2 3 2 1 1 1 -0 -1 -0 -0 -1 -1 -2 -5 -7 -9 -11 -12 -9 -5 -3 -3 -2 -1 2 1 0 -1 -2 -4 -5 -7 -7 -0 4 6
5 5 4 3 3 3 3 2 2 1 1 1 1 1 1 0 0 -2 -3 -2 -3 -8 -8 -7 -9 -11 -12 -11 -10 -8 -6 -5 1 2 0 -1 -1 -3 -3 -5 -7 -4 3
6 5 5 4 4 2 2 2 1 1 2 1 1 -0 -1 -1 -2 -1 -2 -2 -2 -2 -9 -10 -9 -7 -7 -7 -7 -7 -7 -4 -3 0 2 1 0 -1 -2 -3 -6 -7 -6
5 5 5 3 2 2 1 1 2 2 0 -0 -1 -4 -4 -5 -6 -1 -2 -2 -2 -3 -3 -3 -12 -10 -8 -7 -6 -5 -5 -6 -5 -3 0 2 2 1 -0 -1 -3 -6 -7
5 4 3 2 1 1 2 1 0 -1 -2 -2 -3 -7 -7 -7 -9 -5 -2 -1 -2 -3 -4 -4 -10 -17 -15 -19 -17 -13 -11 -9 -7 -6 -5 -1 3 2 2 1 -0 -2 -4
3 2 2 1 1 1 -0 -3 -4 -3 -4 -4 -4 -7 -6 -6 -6 -3 -2 -4 -3 -2 -3 -3 -4 -5 -6 -11 -21 -26 -27 -25 -19 -5 -7 -6 -3 2 3 2 2 0 -1
2 2 1 1 1 -0 -3 -5 -4 -4 -5 -3 -3 -7 -7 -7 -1 -2 -4 -4 -4 -5 -3 -4 -4 -5 -5 -5 -3 -2 -17 -19 -19 -8 -9 -11 -9 -4 1 4 2 3 1
1 1 1 -0 -1 -2 -1 -4 -4 -4 -6 -5 -3 -4 -8 -9 -8 -4 -5 -5 -6 -4 -5 -5 -5 -5 -4 -4 -4 -5 -2 -2 -15 -14 -15 -13 -13 -10 -5 1 4 3 3
1 -2 -4 -4 -4 -7 -4 -2 -3 -3 -4 -5 -4 -4 -5 -7 -7 -7 -7 -7 -6 -7 -6 -6 -6 -6 -4 -4 -3 -3 -3 -4 -7 -8 -10 -10 -2 -1 0 1 3 5 4
-3 -3 -8 -11 -9 -5 -2 -3 -4 -3 -4 -5 -6 -6 -5 -5 -6 -7 -8 -8 -8 -9 -9 -8 -7 -7 -6 -5 -4 -3 -3 -5 -6 -6 -6 -4 -5 -3 1 2 2 4 5
-2 -3 -4 -6 -5 -2 -2 -1 -2 -2 -4 -5 -6 -6 -6 -8 -9 -9 -9 -10 -11 -11 -11 -10 -10 -9 -8 -6 -6 -5 -4 -7 -6 -6 -5 -6 -6 -7 -0 1 1 1 3
-2 -1 0 -1 -0 -1 -1 -2 -2 -3 -3 -4 -6 -6 -7 -8 -8 -9 -11 -12 -13 -13 -11 -11 -11 -11 -10 -10 -8 -6 -5 -6 -8 -7 -6 -5 -7 -8 -7 -1 -0 1 3
-3 -3 -2 -1 -1 -2 -1 -2 -3 -3 -4 -5 -5 -6 -7 -7 -8 -9 -10 -10 -11 -11 -12 -12 -12 -12 -11 -11 -10 -10 -6 -7 -10 -7 -8 -9 -9 -9 -10 -9 -4 -0 3
-4 -3 -2 -3 -3 -3 -3 -3 -3 -3 -3 -4 -5 -6 -7 -8 -8 -8 -8 -9 -9 -10 -11 -12 -13 -13 -13 -12 -11 -11 -9 -9 -8 -8 -8 -7 -9 -11 -10 -12 -6 -1 1
-5 -6 -4 -4 -4 -4 -4 -3 -4 -3 -4 -4 -5 -6 -6 -7 -7 -7 -8 -9 -8 -8 -10 -12 -13 -13 -13 -12 -12 -11 -10 -9 -8 -8 -9 -11 -10 -14 -13 -10 -12 -6 -1
-7 -7 -7 -7 -5 -5 -4 -3 -4 -4 -4 -4 -7 -7 -7 -7 -7 -9 -10 -10 -10 -11 -11 -13 -13 -13 -12 -12 -12 -11 -10 -10 -10 -12 -10 -9 -10 -13 -15 -14 -11 -12 -9
-7 -7 -6 -6 -5 -5 -4 -4 -3 -4 -5 -5 -6 -6 -7 -7 -9 -10 -10 -11 -11 -11 -11 -12 -12 -12 -11 -11 -11 -10 -10 -9 -10 -10 -9 -9 -10 -14 -12 -14 -14 -13 -13
-6 -6 -4 -4 -5 -4 -3 -3 -4 -5 -5 -6 -7 -7 -8 -9 -9 -10 -11 -11 -12 -11 -10 -11 -11 -11 -11 -11 -11 -11 -11 -11 -10 -10 -7 -7 -9 -14 -12 -13 -15 -16 -15
-6 -4 -4 -4 -3 -3 -4 -5 -5 -5 -6 -7 -7 -8 -9 -9 -10 -11 -11 -11 -11 -11 -10 -10 -10 -11 -12 -12 -11 -10 -8 -8 -10 -9 -11 -10 -11 -13 -13 -14 -15 -16 -15
-5 -4 -5 -5 -5 -5 -5 -6 -6 -7 -7 -8 -8 -9 -10 -11 -11 -11 -11 -11 -11 -11 -11 -11 -11 -11 -11 -11 -11 -12 -12 -10 -9 -9 -8 -10 -10 -11 -13 -15 -18 -18 -13
-4 -5 -5 -4 -5 -5 -6 -6 -6 -7 -8 -9 -10 -11 -12 -12 -15 -12 -11 -11 -11 -11 -11 -11 -11 -11 -12 -12 -10 -12 -11 -12 -13 -11 -8 -7 -8 -9 -10 -10 -10 -12 -12
-5 -5 -4 -5 -5 -6 -8 -8 -8 -9 -9 -11 -12 -13 -12 -12 -11 -12 -11 -12 -12 -11 -11 -10 -11 -11 -11 -12 -12 -10 -11 -10 -10 -10 -8 -7 -9 -8 -9 -10 -8 -7 -8
-5 -5 -4 -5 -5 -6 -8 -8 -9 -10 -10 -11 -12 -12 -12 -12 -12 -11 -12 -12 -11 -11 -11 -11 -11 -11 -10 -10 -10 -10 -12 -11 -10 -10 -9 -9 -8 -8 -9 -9 -10 -9 -6
-6 -5 -5 -6 -6 -7 -8 -9 -10 -12 -10 -10 -11 -11 -11 -12 -12 -12 -12 -12 -11 -12 -12 -12 -11 -11 -11 -11 -10 -10 -10 -11 -11 -11 -10 -11 -10 -10 -9 -8 -8 -10 -7
-6 -6 -5 -6 -6 -7 -8 -9 -12 -12 -9 -10 -10 -11 -12 -13 -12 -13 -13 -12 -12 -13 -12 -12 -12 -12 -13 -13 -12 -11 -10 -10 -10 -10 -9 -10 -10 -9 -9 -8 -8 -8 -11
-7 -7 -7 -6 -7 -8 -9 -10 -12 -12 -10 -10 -10 -11 -12 -15 -25 -14 -14 -13 -12 -12 -12 -12 -12 -11 -11 -11 -11 -11 -10 -10 -11 -11 -12 -9 -10 -9 -9 -9 -9 -8 -11

GFSMA_850_dewp_033.txt.gz
Dewpoint
8 9 7 6 5 5 5 5 4 3 3 3 3 2 2 2 1 1 0 -1 -2 -2 -4 -7 -7 -8 -9 -10 -11 -12 -11 -10 -5 -2 1 1 -1 -1 -3 -6 -7 -2 5
5 8 7 6 5 5 5 3 2 3 3 3 2 2 1 -1 -1 -1 -1 -1 -2 -1 -3 -5 -7 -7 -5 -5 -5 -6 -8 -10 -9 -7 -4 1 1 -0 -1 -2 -4 -7 -7
6 7 6 6 5 4 2 3 3 3 3 1 -0 -1 -2 -5 -4 -5 -2 -1 -2 -2 -2 -3 -7 -9 -10 -10 -9 -7 -6 -5 -6 -8 -7 -4 1 2 0 -1 -0 -2 -6
7 6 6 5 3 2 3 3 2 1 0 -0 -2 -2 -6 -7 -6 -6 -7 -3 -1 -2 -3 -2 -3 -7 -11 -13 -14 -16 -14 -6 -9 -9 -7 -6 -6 -1 2 2 -0 -0 -1
5 5 4 3 2 3 3 2 1 0 -1 -2 -5 -5 -5 -6 -5 -6 -6 -2 -2 -3 -2 -3 -3 -4 -5 -5 -6 -8 -6 -0 -3 0 1 -2 -5 -7 -3 2 3 1 0
5 4 4 3 2 2 2 2 1 -1 -3 -6 -6 -4 -4 -6 -6 -4 -2 -2 -3 -3 -3 -3 -3 -4 -5 -5 -4 -3 -0 -1 -0 0 0 1 -3 -10 -7 -5 2 3 2
3 3 3 3 2 1 1 1 -1 -3 -4 -4 -5 -5 -4 -6 -8 -4 -5 -3 -4 -4 -5 -4 -4 -5 -5 -4 -4 -3 -2 -1 -0 -1 -0 -1 -2 -12 -16 -9 -5 2 4
3 3 2 2 1 0 -2 -2 -1 -2 -4 -4 -4 -5 -5 -7 -7 -6 -5 -6 -6 -6 -5 -7 -6 -5 -5 -5 -5 -3 -2 -2 -4 -4 -2 -2 -1 -1 -4 -5 -4 -3 3
3 2 1 1 -0 -2 -4 -2 -2 -2 -3 -4 -4 -5 -6 -7 -7 -7 -7 -8 -7 -8 -8 -9 -8 -8 -7 -7 -6 -4 -5 -5 -5 -6 -2 -1 -2 -2 -1 -1 -0 1 2
2 1 0 -0 -1 -1 -1 -2 -3 -2 -3 -4 -5 -6 -6 -6 -7 -8 -9 -9 -9 -10 -11 -10 -10 -9 -9 -9 -7 -7 -4 -4 -4 -6 -6 -2 -1 -1 -1 -2 1 1 2
2 -0 -1 -0 -0 -1 -2 -2 -2 -2 -3 -4 -5 -6 -7 -8 -8 -8 -7 -9 -11 -12 -11 -12 -11 -10 -10 -10 -10 -10 -6 -9 -9 -7 -7 -5 -3 -2 -2 -2 -1 -1 -0
-3 -3 -2 -2 -1 -2 -2 -2 -2 -3 -3 -3 -3 -4 -5 -7 -6 -7 -7 -9 -10 -11 -11 -11 -11 -11 -11 -11 -11 -11 -11 -10 -7 -5 -7 -8 -5 -5 -4 -3 -5 -2 -0
-4 -5 -3 -2 -3 -3 -3 -3 -2 -5 -3 -3 -2 -2 -5 -6 -6 -6 -7 -7 -8 -9 -10 -11 -11 -12 -12 -12 -12 -12 -12 -10 -10 -9 -8 -7 -8 -7 -8 -9 -9 -10 -6
-4 -4 -4 -4 -4 -4 -4 -4 -4 -3 -3 -2 -2 -3 -5 -5 -5 -6 -6 -6 -7 -9 -10 -10 -11 -12 -12 -13 -13 -12 -11 -11 -11 -10 -9 -8 -8 -8 -9 -8 -9 -11 -12
-6 -8 -6 -6 -7 -7 -6 -5 -5 -3 -4 -3 -3 -4 -3 -4 -4 -5 -6 -8 -7 -7 -9 -11 -12 -13 -13 -11 -12 -11 -11 -10 -11 -11 -11 -10 -9 -9 -11 -13 -8 -11 -12
-6 -6 -6 -7 -6 -5 -5 -5 -4 -4 -3 -3 -3 -4 -5 -4 -5 -6 -8 -9 -11 -10 -10 -12 -13 -12 -11 -11 -11 -11 -10 -10 -10 -10 -8 -9 -12 -10 -10 -13 -14 -11 -13
-6 -7 -7 -6 -5 -6 -6 -4 -4 -3 -3 -4 -5 -4 -4 -5 -6 -7 -10 -11 -11 -12 -12 -12 -12 -11 -10 -10 -10 -10 -11 -10 -11 -11 -12 -10 -9 -8 -8 -9 -15 -16 -14
-6 -7 -6 -5 -5 -5 -4 -4 -4 -4 -4 -5 -5 -5 -6 -7 -9 -10 -11 -11 -12 -12 -12 -12 -12 -10 -10 -10 -10 -11 -11 -11 -9 -10 -10 -9 -7 -6 -7 -9 -13 -17 -17
-6 -6 -5 -5 -5 -5 -5 -4 -5 -5 -5 -5 -6 -6 -9 -10 -10 -11 -11 -11 -11 -12 -11 -10 -10 -10 -10 -11 -11 -11 -11 -11 -10 -10 -8 -9 -9 -10 -11 -11 -13 -18 -17
-6 -6 -5 -5 -5 -6 -6 -5 -5 -6 -6 -6 -8 -9 -10 -10 -11 -10 -11 -11 -11 -11 -11 -10 -10 -11 -11 -10 -10 -11 -10 -10 -11 -12 -11 -10 -8 -7 -8 -11 -14 -17 -20
-5 -5 -6 -5 -5 -5 -6 -6 -6 -7 -9 -10 -10 -10 -11 -12 -12 -12 -11 -11 -11 -11 -11 -11 -11 -10 -10 -10 -11 -11 -11 -11 -11 -10 -10 -10 -9 -8 -7 -8 -9 -10 -13
-6 -6 -6 -5 -6 -6 -6 -9 -9 -9 -9 -10 -11 -11 -11 -12 -12 -12 -10 -10 -11 -11 -11 -10 -11 -11 -12 -11 -10 -9 -10 -10 -11 -12 -9 -9 -9 -8 -6 -7 -6 -6 -6
-6 -6 -5 -5 -5 -5 -6 -8 -9 -9 -9 -10 -10 -10 -11 -12 -11 -11 -11 -12 -11 -12 -12 -11 -11 -10 -10 -11 -11 -10 -11 -9 -10 -11 -10 -11 -11 -8 -8 -7 -7 -8 -10
-6 -6 -5 -5 -4 -5 -7 -9 -8 -10 -9 -9 -9 -10 -11 -11 -12 -13 -17 -11 -12 -13 -13 -12 -11 -11 -12 -12 -12 -11 -11 -11 -11 -11 -11 -10 -11 -11 -10 -9 -11 -11 -11
-6 -6 -6 -5 -5 -6 -6 -9 -9 -10 -9 -9 -9 -10 -10 -11 -12 -19 -27 -13 -12 -13 -13 -13 -13 -12 -13 -12 -12 -10 -12 -10 -10 -11 -11 -9 -10 -10 -10 -10 -10 -10 -10
-7 -7 -7 -6 -6 -6 -7 -8 -9 -10 -9 -9 -9 -10 -10 -11 -13 -25 -28 -22 -13 -12 -13 -13 -12 -11 -11 -10 -10 -10 -10 -9 -9 -10 -11 -9 -8 -8 -8 -10 -9 -10 -9